Change the Weather History Date:

Saturday, February 16, 2013

  Actual Average (LGEL) Record (LGEL)
Temperature  
Mean Temperature 45 °F -  
Max Temperature 53 °F 54 °F 66 °F (1998)
Min Temperature 37 °F 39 °F 30 °F (2006)
Degree Days  
Heating Degree Days 20    
Moisture  
Dew Point 42 °F    
Average Humidity 80    
Maximum Humidity 93    
Minimum Humidity 62    
Precipitation  
Precipitation 0.00 in - - ()
Sea Level Pressure  
Sea Level Pressure 30.05 in    
Wind  
Wind Speed 3 mph ()    
Max Wind Speed 12 mph    
Max Gust Speed -    
Visibility 6.2 miles    
Events Rain , Thunderstorm    
Averages and records for this station are not official NWS values.
T = Trace of Precipitation, MM = Missing Value Source: Averaged Metar Reports

Daily Weather History Graph

Daily Weather History Graph

Search for Another Location

Airport or City:

Trip Planner

Search our weather history database for the weather conditions in past years. The results will help you decide how hot, cold, wet, or windy it might be!

Date:

Astronomy

Feb. 16, 2013 Rise Set
Actual Time 7:12 AM EET 6:04 PM EET
Civil Twilight 6:46 AM EET 6:31 PM EET
Nautical Twilight 6:15 AM EET 7:01 PM EET
Astronomical Twilight 5:44 AM EET 7:32 PM EET
Moon 10:21 AM EET (2/16) No Moon Set
Length of Visible Light 11h 44m
Length of Day
10h 51m
Waxing Crescent, 36% of the Moon is Illuminated
Feb 16
Waxing Crescent
Feb 17
First Quarter
Feb 25
Full
Mar 4
Last Quarter
Mar 11
New

Hourly Weather History & Observations

Time (EET) Temp. Windchill Dew Point Humidity Pressure Visibility Wind Dir Wind Speed Gust Speed Precip Events Conditions
12:20 AM 42.8 °F - 37.4 °F 81% 30.04 in 6.2 mi Variable 1.2 mph - N/A   Scattered Clouds
12:50 AM 39.2 °F 37.0 °F 35.6 °F 87% 30.04 in 6.2 mi West 3.5 mph - N/A   Scattered Clouds
1:20 AM 39.2 °F 37.0 °F 37.4 °F 93% 30.04 in 6.2 mi West 3.5 mph - N/A   Scattered Clouds
1:50 AM 37.4 °F - 35.6 °F 93% 30.06 in 6.2 mi NW 2.3 mph - N/A   Scattered Clouds
2:20 AM 39.2 °F 37.0 °F 37.4 °F 93% 30.06 in 6.2 mi WNW 3.5 mph - N/A   Scattered Clouds
2:50 AM 37.4 °F - 35.6 °F 93% 30.04 in 6.2 mi Calm Calm - N/A   Scattered Clouds
3:20 AM 41.0 °F 38.0 °F 39.2 °F 93% 30.06 in 6.2 mi West 4.6 mph - N/A   Scattered Clouds
3:50 AM 42.8 °F - 41.0 °F 93% 30.06 in 6.2 mi Variable 1.2 mph - N/A   Scattered Clouds
4:20 AM 42.8 °F 41.1 °F 41.0 °F 93% 30.06 in 6.2 mi WNW 3.5 mph - N/A   Scattered Clouds
4:50 AM 42.8 °F - 41.0 °F 93% 30.06 in 6.2 mi Variable 2.3 mph - N/A   Scattered Clouds
5:20 AM 42.8 °F - 41.0 °F 93% 30.06 in 6.2 mi Variable 2.3 mph - N/A   Scattered Clouds
5:50 AM 42.8 °F - 41.0 °F 93% 30.04 in 6.2 mi Calm Calm - N/A   Scattered Clouds
6:20 AM 42.8 °F - 41.0 °F 93% 30.06 in 6.2 mi WNW 2.3 mph - N/A   Mostly Cloudy
6:50 AM 44.6 °F - 41.0 °F 87% 30.06 in 6.2 mi NW 1.2 mph - N/A   Mostly Cloudy
7:20 AM 44.6 °F - 41.0 °F 87% 30.06 in 6.2 mi West 2.3 mph - N/A   Mostly Cloudy
7:50 AM 46.4 °F - 41.0 °F 81% 30.06 in 6.2 mi Variable 1.2 mph - N/A   Mostly Cloudy
8:20 AM 46.4 °F - 41.0 °F 81% 30.06 in 6.2 mi NE 1.2 mph - N/A   Mostly Cloudy
8:50 AM 48.2 °F - 42.8 °F 82% 30.06 in 6.2 mi Calm Calm - N/A   Mostly Cloudy
9:20 AM 48.2 °F - 42.8 °F 82% 30.06 in 6.2 mi Calm Calm - N/A   Mostly Cloudy
9:50 AM 50.0 °F - 42.8 °F 76% 30.06 in 6.2 mi Calm Calm - N/A   Mostly Cloudy
10:20 AM 51.8 °F - 42.8 °F 71% 30.06 in 6.2 mi Variable 2.3 mph - N/A   Mostly Cloudy
10:50 AM 53.6 °F - 42.8 °F 67% 30.06 in 6.2 mi Variable 2.3 mph - N/A   Mostly Cloudy
11:20 AM 53.6 °F - 42.8 °F 67% 30.06 in 6.2 mi ESE 5.8 mph - N/A   Mostly Cloudy
11:50 AM 53.6 °F - 42.8 °F 67% 30.06 in 6.2 mi East 8.1 mph - N/A   Mostly Cloudy
12:20 PM 53.6 °F - 42.8 °F 67% 30.06 in 6.2 mi ESE 10.4 mph - N/A   Mostly Cloudy
12:50 PM 53.6 °F - 42.8 °F 67% 30.06 in 6.2 mi East 10.4 mph - N/A   Mostly Cloudy
1:20 PM 53.6 °F - 41.0 °F 62% 30.06 in 6.2 mi East 11.5 mph - N/A   Mostly Cloudy
1:50 PM 53.6 °F - 42.8 °F 67% 30.04 in 6.2 mi East 10.4 mph - N/A   Scattered Clouds
2:20 PM 53.6 °F - 41.0 °F 62% 30.04 in 6.2 mi East 10.4 mph - N/A Rain Light Rain
2:50 PM 51.8 °F - 41.0 °F 67% 30.04 in 6.2 mi NE 9.2 mph - N/A Rain Light Rain
3:20 PM 50.0 °F - 44.6 °F 82% 30.04 in 6.2 mi ENE 8.1 mph - N/A Rain Light Rain
3:50 PM 51.8 °F - 44.6 °F 76% 30.04 in 6.2 mi ESE 9.2 mph - N/A   Mostly Cloudy
4:20 PM 51.8 °F - 44.6 °F 76% 30.04 in 6.2 mi ESE 6.9 mph - N/A   Mostly Cloudy
4:50 PM 51.8 °F - 44.6 °F 76% 30.04 in 6.2 mi ESE 6.9 mph - N/A   Mostly Cloudy
5:20 PM 51.8 °F - 44.6 °F 76% 30.04 in 6.2 mi ESE 5.8 mph - N/A   Mostly Cloudy
5:50 PM 51.8 °F - 44.6 °F 76% 30.04 in 6.2 mi ESE 3.5 mph - N/A   Mostly Cloudy
6:20 PM 51.8 °F - 42.8 °F 71% 30.04 in 6.2 mi East 4.6 mph - N/A   Mostly Cloudy
6:50 PM 51.8 °F - 42.8 °F 71% 30.04 in 6.2 mi East 4.6 mph - N/A   Mostly Cloudy
7:20 PM 51.8 °F - 42.8 °F 71% 30.04 in 6.2 mi East 5.8 mph - N/A   Mostly Cloudy
7:50 PM 51.8 °F - 42.8 °F 71% 30.04 in 6.2 mi Variable 1.2 mph - N/A   Mostly Cloudy
8:20 PM 50.0 °F - 41.0 °F 71% 30.04 in 6.2 mi NE 9.2 mph - N/A Rain Light Rain
8:50 PM 48.2 °F - 42.8 °F 82% 30.04 in 6.2 mi NNE 9.2 mph - N/A Rain Light Rain
9:20 PM 46.4 °F 45.2 °F 42.8 °F 87% 30.04 in 6.2 mi Variable 3.5 mph - N/A Rain , Thunderstorm Light Thunderstorms and Rain
9:50 PM 46.4 °F 43.5 °F 42.8 °F 87% 30.04 in 6.2 mi North 5.8 mph - N/A   Mostly Cloudy
10:20 PM 46.4 °F 44.3 °F 42.8 °F 87% 30.04 in 6.2 mi North 4.6 mph - N/A   Mostly Cloudy
10:50 PM 46.4 °F 45.2 °F 42.8 °F 87% 30.04 in 6.2 mi North 3.5 mph - N/A   Mostly Cloudy
11:20 PM 46.4 °F - 42.8 °F 87% 30.04 in 6.2 mi North 2.3 mph - N/A Rain Light Rain
11:50 PM 46.4 °F - 42.8 °F 87% 30.04 in 6.2 mi Variable 1.2 mph - N/A Rain Light Rain